Location: Staunton
(38.1490°N, 79.0720°W)
Time: 14:26:58
(UTC-04:00)

ISS - Pass Details

Date: 18 July 2019
Orbit: 409 x 418 km, 51.6° (Epoch: 20 July)

Event Time Altitude Azimuth Distance (km) Brightness Sun altitude
Rises 00:03:25 0° 287° (WNW) 2,347 0.6 -27.9°
Reaches altitude 10° 00:06:46 10° 324° (NW) 1,484 -0.1 -28.2°
Maximum altitude 00:07:55 11° 344° (NNW) 1,402 -0.2 -28.2°
Drops below altitude 10° 00:09:05 10° 5° (N) 1,483 -0.2 -28.3°
Sets 00:12:26 0° 41° (NE) 2,344 0.4 -28.5°
